SILU-1 (SILKROAD 1)

Last updated on Thu Apr 11 2019 03:13:57 GMT+0000 (Coordinated Universal Time)

1 42903U 17021F 19100.23204088 .02436429 89480-5 50117-3 0 9998 2 42903 42.7609 296.2424 0011156 293.9683 66.9737 16.29954320 97039

Satellite not in orbit